Torna al catalogo

SL-3 DEB

AttivoPO
NORAD 8039·DEBRIS·🇷🇺 Russia

Lanciato Jul 11, 1975 da Plesetsk Cosmodrome

Loading…

Prossimi Passaggi (prossime 24 ore)

TLE

AggiornatoSource: Space-Track

Epoca: Sep 14, 2026, 13:32 UTC

1 08039U 75064C   26257.56417866  .00000210  00000-0  11349-3 0  9991
2 08039  81.3010 345.7294 0020423 310.1464  49.7917 14.09332616630279

Traccia SL-3 DEB in tempo reale con AllMySat

Download on the App Store